Tracking 19245 objects as of 14-Aug-2018
HD Live streaming from Space Station
objects crossing your sky now

FENGYUN 1C DEB

Track FENGYUN 1C DEB now!
10-day predictions


NORAD ID: 30404
Int'l Code: 1999-025ADT
Perigee: 859.2 km
Apogee: 1,443.8 km
Inclination: 99.7 °
Period: 108.2 minutes
Semi major axis: 7522 km
RCS: 0.0064 m2 (small)
Launch date: May 10, 1999
Source: People's Republic of China (PRC)
Launch site: Taiyaun Space Center, China (TSC)

Note: This is SATELLITE DEBRIS
aabbcc
Your satellite tracking list
Your tracking list is empty




NASA's NSSDC Master Catalog

Two Line Element Set (TLE):
1 30404U 99025ADT 18225.74116993 +.00000134 +00000-0 +23990-3 0  9998
2 30404 099.6665 048.2179 0388545 098.6951 328.0795 13.30628162561105
Source of the keplerian elements: AFSPC